Wednesday, January 17, 2018, 1:10 PM GMT
Back to Local

CWTY, Trois Rivieres

Location: , , Canada Lat: 46.35
Local Time: 1:10 PM GMT (13:10 GMT) Lon: -72.517
Time Zone: GMT Elev: 19 ft

Show me the last for .
Show Coded

Time T Td Feel RH Dir Speed Gust Alt SLP Vis Weather Sky Remarks
2018-01-17 12:00 7 6 - 92 320° 1 - - 30.37 0 None
2018-01-17 11:00 7 5 - 92 340° 2 - - 30.38 0 None
2018-01-17 10:00 6 4 - 91 310° 2 - - 30.38 0 None
2018-01-17 09:00 6 4 - 91 340° 2 - - 30.38 0 None
2018-01-17 08:00 5 3 - 90 10° 2 - - 30.39 0 None
2018-01-17 07:00 5 3 -4 91 350° 5 - - 30.39 0 None
2018-01-17 06:00 5 3 -4 91 360° 5 - - 30.39 0 None
2018-01-17 05:00 6 4 -1 91 310° 3 - - 30.40 0 None
2018-01-17 04:00 6 3 -2 90 320° 3 - - 30.41 0 None
2018-01-17 03:00 5 3 - 90 330° 2 - - 30.42 0 None
2018-01-17 02:00 8 6 1 92 360° 3 - - 30.43 0 None
2018-01-17 01:00 10 8 3 90 340° 3 - - 30.44 0 None
2018-01-17 00:00 11 8 - 88 330° 1 - - 30.45 0 None
2018-01-16 23:00 12 9 - 87 360° 2 - - 30.44 0 None
2018-01-16 22:00 14 10 - 84 100° 2 - - 30.44 0 None
2018-01-16 21:00 14 10 - 84 120° 2 - - 30.44 0 None
2018-01-16 20:00 13 8 7 78 40° 3 - - 30.42 0 None
2018-01-16 19:00 14 10 6 84 60° 5 - - 30.43 0 None
2018-01-16 18:00 15 10 6 79 70° 6 - - 30.44 0 None
2018-01-16 17:00 12 8 1 85 60° 7 - - 30.45 0 None
2018-01-16 16:00 11 8 -2 87 60° 10 - - 30.47 0 None
2018-01-16 15:00 10 6 -5 85 60° 12 - - 30.49 0 None
2018-01-16 14:00 9 5 -8 84 60° 16 - - 30.49 0 Peak wind: 21 mph (19 kts) from 60° at 39 min

Support USWX by starting your Amazon purchase here.